Location: Newark
(23.1300°N, 73.6109°E)
Time: 17:17:47
(UTC+00:00)

AO-7 - Pass Details

Date: 08 July 2020
Orbit: 1440 x 1458 km, 101.8° (Epoch: 05 August)

Event Time Altitude Azimuth Distance (km) Brightness Sun altitude
Rises 21:09:56 0° 43° (NE) 4,562 ? -36.1°
Reaches altitude 10° 21:14:20 10° 64° (ENE) 3,580 ? -35.5°
Maximum altitude 21:18:52 16° 98° (E) 3,154 ? -34.9°
Drops below altitude 10° 21:23:22 10° 132° (SE) 3,572 ? -34.3°
Enters shadow 21:25:10 - 141° (SE) 3,929 ? -34.0°
